Dover AFB, DE

5:10 AM EST on January 19, 2017 (GMT -0500)
Dover Air Force Base

Weather History for KDOV - November, 2013

Change the Weather History Date:

Saturday, November 23, 2013

  Actual Average Record
Temperature  
Mean Temperature 45 °F -  
Max Temperature 55 °F 54 °F 74 °F (1979)
Min Temperature 34 °F 34 °F 19 °F (1964)
Degree Days  
Heating Degree Days 20    
Moisture  
Dew Point 29 °F    
Average Humidity 55    
Maximum Humidity 99    
Minimum Humidity 33    
Precipitation  
Precipitation 0.00 in - - ()
Sea Level Pressure  
Sea Level Pressure 30.05 in    
Wind  
Wind Speed 14 mph (WNW)    
Max Wind Speed 20 mph    
Max Gust Speed 31 mph    
Visibility 10 miles    
Events      
Averages and records for this station are not official NWS values.
T = Trace of Precipitation, MM = Missing Value Source: NWS Daily Summary

Daily Weather History Graph

Daily Weather History Graph

Search for Another Location

Airport or City:

Trip Planner

Search our weather history database for the weather conditions in past years. The results will help you decide how hot, cold, wet, or windy it might be!

Date:

Astronomy

Nov. 23, 2013 Rise Set
Actual Time 6:54 AM EST 4:42 PM EST
Civil Twilight 6:24 AM EST 5:11 PM EST
Nautical Twilight 5:52 AM EST 5:44 PM EST
Astronomical Twilight 5:20 AM EST 6:16 PM EST
Moon 10:07 PM EST (11/23) 11:10 AM EST (11/23)
Length of Visible Light 10h 46m
Length of Day
9h 48m
Waning Gibbous, 70% of the Moon is Illuminated
Nov 23
Waning Gibbous
Nov 25
Last Quarter
Dec 2
New
Dec 9
First Quarter
Dec 17
Full

Hourly Weather History & Observations

Time (EST) Temp. Windchill Dew Point Humidity Pressure Visibility Wind Dir Wind Speed Gust Speed Precip Events Conditions
12:58 AM 55.2 °F - 55.0 °F 99% 29.99 in 10.0 mi WNW 12.7 mph - N/A   Mostly Cloudy
1:58 AM 52.9 °F - 50.9 °F 93% 30.01 in 10.0 mi NW 12.7 mph 21.9 mph N/A   Clear
2:58 AM 50.9 °F - 47.1 °F 87% 30.01 in 10.0 mi NW 11.5 mph - N/A   Partly Cloudy
3:58 AM 50.4 °F - 44.1 °F 79% 30.02 in 10.0 mi NW 16.1 mph - N/A   Overcast
4:58 AM 47.5 °F - 38.8 °F 72% 30.04 in 10.0 mi NW 12.7 mph - N/A   Clear
5:58 AM 44.6 °F 37.2 °F 36.1 °F 72% 30.06 in 10.0 mi NW 17.3 mph - N/A   Clear
6:58 AM 42.6 °F 35.6 °F 34.0 °F 71% 30.09 in 10.0 mi NW 13.8 mph - N/A   Mostly Cloudy
7:58 AM 42.1 °F 33.6 °F 30.9 °F 65% 30.09 in 10.0 mi NW 18.4 mph - N/A   Clear
8:58 AM 43.0 °F 35.1 °F 29.5 °F 59% 30.10 in 10.0 mi NW 17.3 mph - N/A   Clear
9:58 AM 44.4 °F 38.2 °F 27.7 °F 52% 30.11 in 10.0 mi NW 12.7 mph - N/A   Clear
10:58 AM 46.9 °F - 26.4 °F 45% 30.08 in 10.0 mi NW 13.8 mph - N/A   Scattered Clouds
11:58 AM 47.7 °F - 26.2 °F 43% 30.06 in 10.0 mi West 11.5 mph - N/A   Clear
12:58 PM 49.1 °F - 20.8 °F 33% 30.03 in 10.0 mi NW 13.8 mph 18.4 mph N/A   Scattered Clouds
1:58 PM 50.0 °F - 21.6 °F 33% 30.00 in 10.0 mi WNW 13.8 mph - N/A   Scattered Clouds
2:58 PM 46.0 °F 41.0 °F 22.5 °F 39% 30.01 in 10.0 mi WNW 10.4 mph - N/A   Scattered Clouds
3:58 PM 45.9 °F 41.7 °F 22.6 °F 40% 30.01 in 10.0 mi West 8.1 mph - N/A   Mostly Cloudy
4:58 PM 44.6 °F 38.8 °F 22.5 °F 42% 30.03 in 10.0 mi West 11.5 mph - N/A   Overcast
5:58 PM 42.8 °F 37.5 °F 21.4 °F 43% 30.03 in 10.0 mi West 9.2 mph - N/A   Overcast
6:58 PM 42.3 °F 35.9 °F 19.9 °F 41% 30.03 in 10.0 mi West 11.5 mph 19.6 mph N/A   Mostly Cloudy
7:58 PM 42.1 °F 34.9 °F 17.8 °F 38% 30.04 in 10.0 mi West 13.8 mph 24.2 mph N/A   Clear
8:58 PM 40.5 °F 31.8 °F 17.6 °F 40% 30.06 in 10.0 mi WNW 17.3 mph 23.0 mph N/A   Partly Cloudy
9:58 PM 37.9 °F 29.2 °F 20.3 °F 49% 30.07 in 10.0 mi NW 15.0 mph 24.2 mph N/A   Clear
10:58 PM 35.6 °F 24.8 °F 20.7 °F 55% 30.10 in 10.0 mi WNW 19.6 mph 25.3 mph N/A   Clear
11:58 PM 34.0 °F 23.8 °F 11.8 °F 40% 30.11 in 10.0 mi WNW 16.1 mph 31.1 mph N/A   Clear